sat.trackr.live / text

‹ back to catalog

STARLINK-30606

NORAD 58109 · 2023-161N

PAYLOAD ACTIVE UNKNOWN

§ Identity

Operator
Country
US
Launch date
2023-10-21
Launch site
AFWTR
Launch vehicle
Mass (kg)
RCS (m²)

Purposes: comms

External: N2YO · Heavens-Above · Gunter

§ Orbital elements

Epoch: 2026-09-20T12:01:46.094016Z

Period
93.85 min
Inclination
53.1602°
Eccentricity
0.0001204
Mean motion
15.34378205 rev/d
Perigee alt
461.9 km
Apogee alt
463.6 km
Semi-major
6,840.9 km
B*
-3.2064e-5
RAAN
337.4237°
Arg perigee
76.5713°
Mean anomaly
283.5424°
Rev number
16,429

§ Raw data

STARLINK-306061 58109U 23161N   26263.50122794 -.00001459  00000+0 -32064-4 0  99942 58109  53.1602 337.4237 0001204  76.5713 283.5424 15.34378205164295

JSON: /api/v1/satellites/58109 · /tle

For live sub-satellite position, see the globe view (requires WebGL).

§ Visibility from observer

Set your observer location to see the next 7 days of passes ≥ 10°. The values pass through the URL so the page stays shareable.

No JS? Fill the form by hand. The geolocation button needs JavaScript.